This is the latest recevied weather packets stored in our database for station/object CE3TL-WX. If no packets are shown the sender has not sent any weather packets the latest 1 day(s).
| Time | Temp. | Humidity | Pressure | Rain* | Wind** | Luminosity | Snow |
|---|---|---|---|---|---|---|---|
| 1778020722 | 16.67° C | 58% | 1021.6 hPa | - | 0.45 m/s, 0° | - | - |
| 1778020188 | 16.67° C | 57% | 1021.5 hPa | - | 0.89 m/s, 0° | - | - |
| 1778019654 | 17.22° C | 54% | 1021.3 hPa | - | 1.79 m/s, 0° | - | - |
| 1778019119 | 17.22° C | 54% | 1021.3 hPa | - | 0.89 m/s, 0° | - | - |
| 1778018585 | 17.22° C | 51% | 1021.2 hPa | - | 1.34 m/s, 0° | - | - |
| 1778018050 | 17.78° C | 52% | 1021.2 hPa | - | 1.34 m/s, 0° | - | - |
| 1778017517 | 17.78° C | 50% | 1020.7 hPa | - | 1.34 m/s, 0° | - | - |
| 1778016983 | 17.78° C | 49% | 1020.5 hPa | - | 0.89 m/s, 0° | - | - |
| 1778016449 | 18.33° C | 48% | 1020.4 hPa | - | 1.34 m/s, 0° | - | - |
| 1778015914 | 18.33° C | 47% | 1020.4 hPa | - | 1.34 m/s, 0° | - | - |
| 1778015380 | 18.33° C | 46% | 1020.3 hPa | - | 1.34 m/s, 0° | - | - |
| 1778014844 | 18.33° C | 45% | 1020.2 hPa | - | 0.89 m/s, 0° | - | - |
| 1778014311 | 18.89° C | 45% | 1020.3 hPa | - | 0.89 m/s, 0° | - | - |
| 1778013776 | 18.89° C | 44% | 1020.4 hPa | - | 1.34 m/s, 0° | - | - |
| 1778013242 | 18.89° C | 44% | 1020.5 hPa | - | 0.89 m/s, 0° | - | - |
| 1778012709 | 18.89° C | 43% | 1020.3 hPa | - | 0.89 m/s, 0° | - | - |
| 1778012175 | 18.89° C | 43% | 1020.2 hPa | - | 0.89 m/s, 0° | - | - |
| 1778011642 | 19.44° C | 42% | 1020 hPa | - | 1.34 m/s, 0° | - | - |
| 1778011108 | 19.44° C | 42% | 1020.3 hPa | - | 1.79 m/s, 0° | - | - |
| 1778010575 | 19.44° C | 41% | 1020.2 hPa | - | 1.34 m/s, 0° | - | - |
| 1778010040 | 20° C | 39% | 1020.2 hPa | - | 1.34 m/s, 0° | - | - |
| 1778009505 | 20° C | 36% | 1020 hPa | - | 0.89 m/s, 0° | - | - |
| 1778008971 | 20° C | 36% | 1020 hPa | - | 0.89 m/s, 0° | - | - |
| 1778008437 | 20.56° C | 35% | 1020 hPa | - | 1.34 m/s, 0° | - | - |
| 1778007902 | 20.56° C | 35% | 1019.8 hPa | - | 1.79 m/s, 0° | - | - |
* Rain since midnight (hover to see other rain measurements)
** Current wind speed in m/s (hover to see current wind gust speed)